Terminal Aerodrome Forecast
Issued by NWS Portland, OR

Home | Current Version | Previous Version | Text Only | Print | Product List | Glossary On
Versions: 1 2 3 4 5 6 7 8 9 10 11 12 13 14 15 16 17 18 19 20 21 22 23 24 25 26 27 28 29 30 31 32 33 34 35 36 37 38 39 40 41 42 43 44 45 46 47 48 49 50
000
FTUS46 KPQR 020253 AAB
TAFPDX
TAF AMD
KPDX 020253Z 0203/0224 VRB03KT P6SM OVC120
     FM020800 VRB03KT P6SM VCSH OVC050
     FM021000 VRB03KT 6SM -RA BR SCT025 OVC050
     FM021500 VRB03KT P6SM OVC050
     FM021800 35005KT P6SM BKN250=

USA.gov is the U.S. government's official web portal to all federal, state and local government web resources and services.